User: anonymous   Login
Location: Unspecified
(0.0000°N, 0.0000°E)
Time: 19:22:32
(UTC+00:00)
Language:

ONEWEB-0124 - Orbit

View from above orbital plane
View from above orbital plane
View from above satellite
View from above satellite

Ground track
Ground track

The orbit is defined by the following mean orbital elements,

1 47270U          26145.32550422 +.00000000 +00000-0 +53838-3 0 00004
2 47270  87.8947 355.2202 0001862  84.0045 276.1295 13.12443390    04
Epoch (UTC): 25 May 2026 07:48:43
Eccentricity: 0.0001862
inclination: 87.8947°
perigee height: 1212 km
apogee height: 1215 km
right ascension of ascending node: 355.2202°
argument of perigee: 84.0045°
revolutions per day: 13.12443390
mean anomaly at epoch: 276.1295°

The dashed part of the orbit path shows where the satellite is in the earth's shadow,  

DLR